Simultaneous Nadir Overpasses (SNOs) Predictions

Prediction of SNOs between GOES-16 and NPP Satellite Orbit:

Table of predicted SNOs for the next 14.0 days since TLE Epoch: 10/27/2023
Index Date Time (GOES-16) GOES-16 Lat,Lon NPP Lat,Lon Distance(km) Time Diff (sec)
1 10/28/2023 06:24:05 0.03, -75.20 -0.00, -74.94 29.84 80
2 10/30/2023 18:27:18 -0.03, -75.22 -0.16, -75.72 57.31 80
3 10/31/2023 18:11:14 -0.03, -75.23 0.90, -71.20 459.55 80
4 11/02/2023 06:33:02 0.03, -75.23 0.28, -76.47 141.26 80
5 11/03/2023 06:11:38 0.03, -75.24 -0.72, -71.94 375.75 80
6 11/04/2023 18:33:34 -0.02, -75.26 -0.49, -77.25 227.00 80
7 11/05/2023 18:17:31 -0.02, -75.27 0.58, -72.73 290.67 80
8 11/07/2023 06:39:19 0.01, -75.29 0.59, -78.00 308.35 80
9 11/08/2023 06:17:55 0.01, -75.31 -0.42, -73.48 209.69 80
10 11/09/2023 18:39:51 -0.01, -75.34 -0.78, -78.78 391.71 80
11 11/10/2023 18:23:46 -0.01, -75.36 0.23, -74.25 126.86 80
